Погода Торгай

Погода Торгай : погода сейчас, прогноз погоды и архив. Всё, что Вы хотите узнать о погоде Торгай!

Хотите узнать прогноз погоды Торгай? Тогда Вам сюда: Погода Торгай

Поиск расширенной информации на нашем сайте:

Другие новости

Новости СМИ2

Главная страница сайта

Новости сайта

02.10.2013

Напоминаем, что на нашем новом сайте вы можете получить высокодетализированные прогнозы погоды по пунктам России, СНГ и мира (включающие важные для авиации метеовеличины, такие как направление и скорость ветра, видимость, явления погоды, количество и форма облачности, нижняя и верхняя граница облачности), а также ознакомиться с разнообразными материалами по авиационной метеорологии и подборкой полезных ссылок на эту тему.

Сайт Метеоцентр.Азия посвящён разработке технологий оптимизации авиаметеорологического обслуживания, включая проектирование и перспективное создание нескольких автоматизированных авиаметеорологических систем:
- система выпуска высокодетальных прогностических карт явлений погоды для нижнего воздушного пространства по России и ближнему зарубежью;
- система верификации прогнозов TAF (выпускаемых синоптиками официальных АМСГ РФ и ближнего зарубежья) и AUTOTAF (выпускаемых сайтом Метеоцентр.Азия) - выявление ошибок, онлайн-сопоставление с фактической погодой METAR, автоматическое внесение коррективов в прогнозы при резком отклонении фактической погоды от прогноза, подсчёт оправдываемости прогнозов по элементам и в целом;
- система обработки, анализа и отображения авиаметеорологической информации для применения провайдерами метеорологической информации.

Рекомендуем: Самая подробная информация акции на продукты питания на сайте.

Погода Торгай - сегодня

Время (UTC), дата Ветер
(°,м/с) 
Видим.   Явления Облачность Т
(°С)
Тd
(°С)
f(%) Тe
(°С)
Pmin
(гПа)
dP
(гПа)
Po
(мм)
O2
(г/м3)
Тmin Tmax R s Состояние
почвы
18 19.06.17 230 (ЮЗ) н/о    6/0 средняя 
[Ac lent]
+21.6 +5.9 36 +22  1006.5  -0.1  743  277    +28.5       
21 19.06.17 230 (ЮЗ) н/о    4/0 средняя 
[Ac lent]
+20.5 +7.3 42 +21  1006.3  -0.3  743  277           
00 20.06.17 230 (ЮЗ) 10 км    4/0 средняя 
[Ac lent]
+18 +7.8 51 +19  1005.8  -0.6  743  279           
03 20.06.17 250 (З) 10 км    8/0 верхняя 
[Ci]
+21.2 +8.5 44 +21  1006.3  0.7  743  276           
06 20.06.17 250 (З) 10 км    9/0 средняя 
[Ac lent]
+24.3 +9 38 +24  1006.3  0.1  743  273  +18         
09 20.06.17 250 (З) 10 км    6/0 средняя 
[Ac lent]
+25.8 +8.4 33 +26  1005.6  -0.6  743  272           
12 20.06.17 250 (З) 10 км    6/0 средняя 
[Ac lent]
+27.2 +8.2 30 +27  1004  -1.5  742  270           
15 20.06.17 250 (З) 10 км    4/0 средняя 
[Ac lent]
+26.3 +7 29 +26  1003.6  -0.5  741  271    +27.5       
18 20.06.17 250 (З) н/о    ясно 
+20.3 +6.4 40 +20  1004.5  0.6  742  277    +27.5       
21 20.06.17 250 (З) н/о    ясно 
+18 +6.1 46 +19  1005.3  0.7  742  280           
00 21.06.17 250 (З) 10 км    ясно 
+17.5 +6.1 47 +19  1003.9  -1.4  741  280           
03 21.06.17 180 (Ю) 10 км    ясно 
+21.8 +8.9 44 +22  1004.1  0.4  741  275           
06 21.06.17 250 (З) 10 км    4/0 средняя 
[Ac lent]
+29.3 +7.8 26 +29  1003.5  -0.2  741  268  +17.5         
09 21.06.17 250 (З) 10 км    8/0 средняя 
[Ac lent]
+30.3 +4.3 19 +30  1002.7  -0.8  741  268           
12 21.06.17 290 (З) 10 км    6/0 средняя 
[Ac lent]
+31.4 +5 19 +31  1002.2  -0.4  740  267    +4.3       
15 21.06.17 320 (СЗ) 10 км    3/0 верхняя 
[Ci fib]
+28.9 +6.8 25 +29  1003.4  1.1  741  269    +31.7       
18 21.06.17 360 (С) н/о    8/0 средняя 
[Ac lent]
+22.2 +5.8 34 +22  1005.1  1.4  742  276    +31.7       
21 21.06.17 360 (С) н/о    3/0 средняя 
[Ac lent]
+18.3 +5.3 42 +20  1005.7  0.3  742  280           
00 22.06.17 360 (С) 10 км    3/0 средняя 
[Ac lent]
+16.2 +5.9 50 +18  1006.1  0.3  743  282           
03 22.06.17 050 (СВ) 10 км    4/0 средняя 
[Ac lent]
+20.5 +6.4 40 +21  1006.2  0.3  751  281           
06 22.06.17 050 (СВ) 10 км    6/6 1000 м 
[Sc]
+26.8 +6.7 28 +27  1005.2  -0.7  742  271  +16.2         
09 22.06.17 070 (В) 10 км    10/10 1000 м 
[Sc]
+29 +5.1 22 +29  1004.1  -0.9  742  269           
12 22.06.17 070 (В) 10 км    10/10 1000 м 
[Sc]
+25.9 +6.7 29 +26  1004.2  0.3  742  272           
15 22.06.17 290 (З) 10 км    10/10 1000 м 
[Sc]
+24.1 +8.9 38 +24  1004.7  742  273    +29.3       
18 22.06.17 250 (З) н/о    10/0 средняя 
[Ac lent]
+22.5 +9.5 44 +23  1004.3  -0.5  742  274    +29.3       
Время (UTC), дата Ветер
(°,м/с) 
Видим.   Явления Облачность Т
(°С)
Тd
(°С)
f(%) Тe
(°С)
Pmin
(гПа)
dP
(гПа)
Po
(мм)
O2
(г/м3)
Тmin Tmax R s Состояние
почвы

Для получения пояснительной информации подведите курсор к названию столбца.

ПОГОДА Торгай - архив

Всё, что Вы хотите узнать о погоде Торгай - удобно и подробно!

Выберите нужную дату (начиная с 1 января 2015* года) и нажмите кнопку "Найти".
Будут отображены архивные сводки погоды по пункту Торгай, начиная с указанной даты.


Отображать данные в формате CSV (для использования в таблицах Excel)


Внимание! Наш архив погоды предназначен исключительно для личного некоммерческого использования в познавательных целях. Если Вам необходимы официальные справки о состоянии погоды (для производственных, юридических, коммерческих и т.п. целей), обращайтесь в органы Росгидромета.

*Примечание: данная дата относится к архиву по метеостанциям СССР (Россия, СНГ, Балтия).
Архив по метеостанциям Зарубежной Европы и Азии (кроме Китая) хранится 10 дней, по другим регионам земного шара (Китай, Африка, Америка, Австралия, Океания) - 1 день.

Торгай - район местоположения метеостанции


Название, широта, долгота, высота метеостанции:
Торгай 49.7°ш. 63.5°д. 123 м над ур. моря [Казахстан]

Дополнительная информация

В oтличие oт бoльшинства пoгoдных сайтoв мы публикуем пoдрoбную метеoинфoрмацию в детальнoм прoфессиoнальнoм фoрмате.

Характеристики температуры и влажнoсти вoздуха измеряются на высoте 2 м в тени вдали oт зданий и деревьев.
Скoрoсть ветра измеряется на высoте 10 м (на урoвне рoста челoвека скoрoсть ветра ниже в 1.5-2 раза). Если метеoстанция нахoдится в гoрoде или в лесу, тo скoрoсть ветра занижена на 2-4 м/с пo сравнению с oткрытым местoм. Скoрoсть ветра над акватoриями крупных рек и oзёр, а также на вершинах хoлмoв на 2-5 м/с выше, чем в oбычных услoвиях.
Атмoсфернoе давление в разных тoчках местнoсти мoжет значительнo oтличаться oт давления на метеoстанции, в зависимoсти oт услoвий рельефа (при пoдъёме на 10 м давление пoнижается примернo на 1 мм рт.ст.).